Weather History for Bentonville, AR

Change the Weather History Date:

Friday, December 30, 2011

  Actual Average Record
Temperature  
Mean Temperature 50 °F -  
Max Temperature 59 °F 44 °F 75 °F (1951)
Min Temperature 37 °F 24 °F -7 °F (1983)
Degree Days  
Heating Degree Days 14    
Moisture  
Dew Point 29 °F    
Average Humidity 47    
Maximum Humidity 76    
Minimum Humidity 23    
Precipitation  
Precipitation 0.00 in - - ()
Sea Level Pressure  
Sea Level Pressure 29.91 in    
Wind  
Wind Speed 9 mph (West)    
Max Wind Speed 20 mph    
Max Gust Speed 25 mph    
Visibility 10 miles    
Events      
Averages and records for this station are not official NWS values.
T = Trace of Precipitation, MM = Missing Value Source: NWS Daily Summary

Daily Weather History Graph

Daily Weather History Graph

Search for Another Location

Airport:

Trip Planner

Search our weather history database for the weather conditions in past years. The results will help you decide how hot, cold, wet, or windy it might be!

Date:

Astronomy

Dec. 30, 2011 Rise Set
Actual Time 7:27 AM CST 5:10 PM CST
Civil Twilight 6:59 AM CST 5:39 PM CST
Nautical Twilight 6:27 AM CST 6:11 PM CST
Astronomical Twilight 5:55 AM CST 6:43 PM CST
Moon 10:58 AM CST (12/30) 11:34 PM CST (12/30)
Length of Visible Light 10h 40m
Length of Day
9h 42m
Waxing Crescent, 36% of the Moon is Illuminated
Dec 30
Waxing Crescent
Jan 1
First Quarter
Jan 9
Full
Jan 16
Last Quarter
Jan 23
New

Hourly Weather History & Observations

Time (CST) Temp. Windchill Dew Point Humidity Pressure Visibility Wind Dir Wind Speed Gust Speed Precip Events Conditions
12:15 AM 50.0 °F - 37.4 °F 62% 29.74 in 10.0 mi SSW 9.2 mph - N/A   Clear
12:35 AM 48.2 °F - 37.4 °F 66% 29.74 in 10.0 mi SSW 8.1 mph - N/A   Clear
12:55 AM 48.2 °F - 37.4 °F 66% 29.74 in 10.0 mi SSW 8.1 mph - N/A   Clear
1:35 AM 48.2 °F - 39.2 °F 71% 29.73 in 10.0 mi SSW 10.4 mph - N/A   Clear
1:55 AM 48.2 °F - 39.2 °F 71% 29.75 in 10.0 mi SW 10.4 mph - N/A   Clear
2:15 AM 48.2 °F - 39.2 °F 71% 29.75 in 10.0 mi SW 11.5 mph 16.1 mph N/A   Clear
3:15 AM 48.2 °F - 39.2 °F 71% 29.79 in 10.0 mi WSW 10.4 mph 18.4 mph N/A   Clear
4:15 AM 48.2 °F - 37.4 °F 66% 29.82 in 10.0 mi West 10.4 mph - N/A   Clear
4:35 AM 48.2 °F - 37.4 °F 66% 29.83 in 10.0 mi WNW 8.1 mph - N/A   Clear
4:55 AM 48.2 °F - 37.4 °F 66% 29.84 in 10.0 mi NW 9.2 mph - N/A   Clear
5:35 AM 46.4 °F 44.3 °F 35.6 °F 66% 29.85 in 10.0 mi WNW 4.6 mph - N/A   Clear
5:55 AM 44.6 °F 42.2 °F 35.6 °F 71% 29.86 in 10.0 mi WSW 4.6 mph - N/A   Clear
6:15 AM 44.6 °F 42.2 °F 35.6 °F 71% 29.85 in 10.0 mi WNW 4.6 mph - N/A   Clear
6:55 AM 42.8 °F 41.1 °F 35.6 °F 76% 29.87 in 10.0 mi West 3.5 mph - N/A   Clear
7:35 AM 42.8 °F 40.1 °F 35.6 °F 76% 29.87 in 10.0 mi West 4.6 mph - N/A   Clear
7:55 AM 42.8 °F 40.1 °F 35.6 °F 76% 29.87 in 10.0 mi WSW 4.6 mph - N/A   Clear
8:15 AM 42.8 °F 40.1 °F 35.6 °F 76% 29.88 in 10.0 mi West 4.6 mph - N/A   Clear
8:35 AM 42.8 °F 40.1 °F 35.6 °F 76% 29.89 in 10.0 mi WSW 4.6 mph - N/A   Clear
8:55 AM 44.6 °F 43.1 °F 35.6 °F 71% 29.88 in 10.0 mi West 3.5 mph - N/A   Clear
9:15 AM 44.6 °F 41.4 °F 35.6 °F 71% 29.90 in 10.0 mi WSW 5.8 mph - N/A   Clear
9:35 AM 46.4 °F 40.7 °F 35.6 °F 66% 29.91 in 10.0 mi WNW 12.7 mph - N/A   Clear
9:55 AM 48.2 °F - 35.6 °F 62% 29.92 in 10.0 mi WNW 6.9 mph - N/A   Clear
10:15 AM 51.8 °F - 35.6 °F 54% 29.92 in 10.0 mi WNW 12.7 mph - N/A   Clear
10:35 AM 53.6 °F - 33.8 °F 47% 29.92 in 10.0 mi NW 12.7 mph - N/A   Clear
10:55 AM 55.4 °F - 30.2 °F 38% 29.92 in 10.0 mi NW 12.7 mph 18.4 mph N/A   Clear
11:15 AM 55.4 °F - 30.2 °F 38% 29.92 in 10.0 mi WNW 15.0 mph 19.6 mph N/A   Clear
11:35 AM 55.4 °F - 28.4 °F 36% 29.93 in 10.0 mi WNW 13.8 mph 23.0 mph N/A   Clear
11:55 AM 57.2 °F - 28.4 °F 33% 29.92 in 10.0 mi WNW 12.7 mph 18.4 mph N/A   Clear
12:35 PM 57.2 °F - 26.6 °F 31% 29.92 in 10.0 mi WNW 17.3 mph 24.2 mph N/A   Clear
12:55 PM 57.2 °F - 26.6 °F 31% 29.92 in 10.0 mi WNW 13.8 mph 24.2 mph N/A   Clear
1:15 PM 57.2 °F - 26.6 °F 31% 29.91 in 10.0 mi WNW 19.6 mph 25.3 mph N/A   Clear
1:35 PM 57.2 °F - 24.8 °F 29% 29.91 in 10.0 mi NW 15.0 mph 21.9 mph N/A   Clear
1:56 PM 59.0 °F - 24.8 °F 27% 29.91 in 10.0 mi West 17.3 mph 24.2 mph N/A   Clear
2:15 PM 59.0 °F - 24.8 °F 27% 29.92 in 10.0 mi WNW 17.3 mph - N/A   Clear
2:55 PM 59.0 °F - 21.2 °F 23% 29.92 in 10.0 mi WNW 16.1 mph 21.9 mph N/A   Clear
3:15 PM 59.0 °F - 23.0 °F 25% 29.93 in 10.0 mi WNW 13.8 mph 18.4 mph N/A   Clear
3:35 PM 57.2 °F - 23.0 °F 27% 29.94 in 10.0 mi West 11.5 mph 18.4 mph N/A   Clear
3:55 PM 57.2 °F - 23.0 °F 27% 29.94 in 10.0 mi WNW 13.8 mph 18.4 mph N/A   Clear
4:15 PM 57.2 °F - 21.2 °F 25% 29.94 in 10.0 mi West 9.2 mph - N/A   Clear
4:35 PM 55.4 °F - 23.0 °F 29% 29.94 in 10.0 mi West 11.5 mph - N/A   Clear
4:55 PM 55.4 °F - 23.0 °F 29% 29.95 in 10.0 mi West 8.1 mph - N/A   Clear
5:15 PM 53.6 °F - 23.0 °F 30% 29.95 in 10.0 mi West 6.9 mph - N/A   Clear
5:35 PM 51.8 °F - 21.2 °F 30% 29.95 in 10.0 mi West 5.8 mph - N/A   Clear
5:55 PM 51.8 °F - 21.2 °F 30% 29.95 in 10.0 mi WSW 4.6 mph - N/A   Clear
6:15 PM 48.2 °F - 21.2 °F 34% 29.95 in 10.0 mi SW 4.6 mph - N/A   Clear
6:35 PM 48.2 °F - 21.2 °F 34% 29.96 in 10.0 mi SW 6.9 mph - N/A   Clear
6:55 PM 48.2 °F - 21.2 °F 34% 29.96 in 10.0 mi WSW 4.6 mph - N/A   Clear
7:15 PM 46.4 °F 44.3 °F 21.2 °F 37% 29.97 in 10.0 mi SW 4.6 mph - N/A   Clear
7:35 PM 46.4 °F 44.3 °F 21.2 °F 37% 29.97 in 10.0 mi WSW 4.6 mph - N/A   Clear
7:55 PM 46.4 °F 43.5 °F 19.4 °F 34% 29.98 in 10.0 mi SW 5.8 mph - N/A   Clear
8:15 PM 48.2 °F - 21.2 °F 34% 29.98 in 10.0 mi WSW 5.8 mph - N/A   Clear
8:35 PM 46.4 °F 43.5 °F 21.2 °F 37% 29.98 in 10.0 mi WSW 5.8 mph - N/A   Clear
8:55 PM 44.6 °F 42.2 °F 23.0 °F 43% 29.98 in 10.0 mi West 4.6 mph - N/A   Clear
9:15 PM 46.4 °F 43.5 °F 21.2 °F 37% 29.98 in 10.0 mi WSW 5.8 mph - N/A   Clear
9:35 PM 46.4 °F 44.3 °F 21.2 °F 37% 29.98 in 10.0 mi West 4.6 mph - N/A   Clear
9:55 PM 44.6 °F 42.2 °F 23.0 °F 43% 29.98 in 10.0 mi West 4.6 mph - N/A   Clear
10:15 PM 44.6 °F 43.1 °F 21.2 °F 39% 29.98 in 10.0 mi West 3.5 mph - N/A   Clear
10:35 PM 44.6 °F 43.1 °F 21.2 °F 39% 29.99 in 10.0 mi West 3.5 mph - N/A   Clear
10:55 PM 44.6 °F 43.1 °F 23.0 °F 43% 29.99 in 10.0 mi West 3.5 mph - N/A   Clear
11:35 PM 37.4 °F 34.9 °F 23.0 °F 56% 29.99 in 10.0 mi SSW 3.5 mph - N/A   Clear
11:55 PM 37.4 °F 33.8 °F 24.8 °F 60% 29.98 in 10.0 mi South 4.6 mph - N/A   Clear